George, South Africa

10:56 AM SAST on March 26, 2017 (GMT +0200)
George

Weather History for FAGG - August, 2013

Change the Weather History Date:

Sunday, August 18, 2013

  Actual Average Record
Temperature  
Mean Temperature 54 °F -  
Max Temperature 60 °F 64 °F 91 °F (1999)
Min Temperature 47 °F 46 °F 39 °F (1996)
Degree Days  
Heating Degree Days 12    
Growing Degree Days 4 (Base 50)    
Moisture  
Dew Point 40 °F    
Average Humidity 63    
Maximum Humidity 82    
Minimum Humidity 39    
Precipitation  
Precipitation 0.00 in - - ()
Sea Level Pressure  
Sea Level Pressure 30.21 in    
Wind  
Wind Speed 16 mph ()    
Max Wind Speed 22 mph    
Max Gust Speed -    
Visibility 7.6 miles    
Events      
Averages and records for this station are not official NWS values.
T = Trace of Precipitation, MM = Missing Value Source: Averaged Metar Reports

Daily Weather History Graph

Daily Weather History Graph

Search for Another Location

Airport or City:

Trip Planner

Search our weather history database for the weather conditions in past years. The results will help you decide how hot, cold, wet, or windy it might be!

Date:

Astronomy

Aug. 18, 2013 Rise Set
Actual Time 7:06 AM SAST 6:02 PM SAST
Civil Twilight 6:40 AM SAST 6:28 PM SAST
Nautical Twilight 6:11 AM SAST 6:57 PM SAST
Astronomical Twilight 5:42 AM SAST 7:26 PM SAST
Moon 3:22 PM SAST (8/18) 4:34 AM SAST (8/18)
Length of Visible Light 11h 48m
Length of Day
10h 56m
Waxing Gibbous, 90% of the Moon is Illuminated
Aug 18
Waxing Gibbous
Aug 21
Full
Aug 28
Last Quarter
Sep 5
New
Sep 12
First Quarter

Hourly Weather History & Observations

Time (SAST) Temp. Dew Point Humidity Pressure Visibility Wind Dir Wind Speed Gust Speed Precip Events Conditions
12:00 AM 48.2 °F 39.2 °F 71% 30.06 in 6.2 mi WNW 18.4 mph - N/A   Partly Cloudy
1:00 AM 48.2 °F 39.2 °F 71% 30.06 in 6.2 mi West 20.7 mph - N/A   Scattered Clouds
2:00 AM 48 °F 39 °F 61% 30.12 in 12 mi West 20.7 mph - -  
2:00 AM 48.2 °F 39.2 °F 71% 30.09 in 6.2 mi West 20.7 mph - N/A   Partly Cloudy
3:00 AM 48.2 °F 39.2 °F 71% 30.09 in 6.2 mi West 19.6 mph - N/A   Mostly Cloudy
4:00 AM 48.2 °F 37.4 °F 66% 30.09 in 6.2 mi West 20.7 mph - N/A   Partly Cloudy
5:00 AM 48 °F 38 °F 57% 30.14 in 12 mi West 20.7 mph - -   Partly Cloudy
5:00 AM 48.2 °F 37.4 °F 66% 30.12 in 6.2 mi West 20.7 mph - N/A   Scattered Clouds
6:00 AM 48.2 °F 37.4 °F 66% 30.15 in 6.2 mi West 16.1 mph - N/A   Mostly Cloudy
8:00 AM 48 °F 38 °F 58% 30.20 in 12 mi West 15.0 mph - -   Partly Cloudy
8:00 AM 48.2 °F 37.4 °F 66% 30.18 in 6.2 mi West 13.8 mph - N/A   Scattered Clouds
9:00 AM 51.8 °F 39.2 °F 62% 30.18 in 6.2 mi WNW 19.6 mph - N/A   Scattered Clouds
10:00 AM 55.4 °F 39.2 °F 54% 30.21 in 6.2 mi West 20.7 mph - N/A   Scattered Clouds
11:00 AM 56 °F 40 °F 45% 30.23 in 12 mi West 20.7 mph - -   Mostly Cloudy
11:00 AM 55.4 °F 41.0 °F 58% 30.21 in 6.2 mi West 20.7 mph - N/A   Scattered Clouds
12:00 PM 57.2 °F 41.0 °F 55% 30.21 in 6.2 mi West 21.9 mph - N/A   Scattered Clouds
1:00 PM 59.0 °F 41.0 °F 51% 30.21 in 6.2 mi West 20.7 mph - N/A   Scattered Clouds
2:00 PM 57 °F 39 °F 39% 30.22 in 12 mi West 19.6 mph - -   Mostly Cloudy
2:00 PM 57.2 °F 39.2 °F 51% 30.21 in 6.2 mi West 19.6 mph - N/A   Scattered Clouds
3:00 PM 59.0 °F 41.0 °F 51% 30.21 in 6.2 mi WSW 19.6 mph - N/A   Scattered Clouds
4:00 PM 57.2 °F 41.0 °F 55% 30.24 in 6.2 mi West 16.1 mph - N/A   Mostly Cloudy
5:00 PM 55 °F 44 °F 57% 30.27 in 12 mi West 12.7 mph - -   Mostly Cloudy
5:00 PM 55.4 °F 44.6 °F 67% 30.27 in 6.2 mi West 12.7 mph - N/A   Mostly Cloudy
6:00 PM 53.6 °F 44.6 °F 72% 30.27 in 6.2 mi West 10.4 mph - N/A   Mostly Cloudy
7:00 PM 50.0 °F 42.8 °F 76% 30.30 in 6.2 mi WNW 6.9 mph - N/A   Scattered Clouds
8:00 PM 51 °F 43 °F 67% 30.35 in 12 mi WNW 5.8 mph - -   Mostly Cloudy
8:00 PM 50.0 °F 42.8 °F 76% 30.33 in 6.2 mi WNW 5.8 mph - N/A   Mostly Cloudy
9:00 PM 50.0 °F 42.8 °F 76% 30.36 in 6.2 mi NW 6.9 mph - N/A   Scattered Clouds
10:00 PM 48.2 °F 42.8 °F 82% 30.36 in 6.2 mi NW 8.1 mph - N/A   Mostly Cloudy
11:00 PM 48.2 °F 41.0 °F 76% 30.36 in - NNW 5.8 mph - N/A   Clear